EW9290 Weather Reports


Display with metric or nautical units.
time (UTC)temp
F
wind
direction
speed
MPH
gust
MPH
rain 1hr
in
rain 24hr
in
rain mn
in
humidity
%
barometer
mb
20260901101216 74 145 0.0 0.0 0.00 0.00 0.00 91 1013.7
20260901100711 74 145 1.0 2.0 0.00 0.00 0.00 91 1013.7
20260901100206 74 173 0.0 0.0 0.00 0.00 0.00 91 1013.8
20260901095704 74 152 0.0 0.0 0.00 0.00 0.00 91 1013.7
20260901095201 74 151 0.0 0.0 0.00 0.00 0.00 91 1013.7
20260901094656 74 193 0.0 0.0 0.00 0.00 0.00 91 1013.7
20260901094156 74 168 0.0 0.0 0.00 0.00 0.00 91 1013.7
20260901093651 74 176 0.0 0.0 0.00 0.00 0.00 90 1013.6
20260901093150 74 180 0.0 0.0 0.00 0.00 0.00 90 1013.7
20260901092646 74 180 0.0 0.0 0.00 0.00 0.00 90 1013.9
20260901092142 74 180 0.0 0.0 0.00 0.00 0.00 90 1013.6
20260901091637 74 192 1.0 2.0 0.00 0.00 0.00 90 1013.6
20260901091132 74 193 0.0 0.0 0.00 0.00 0.00 90 1013.7
20260901090627 74 193 0.0 0.0 0.00 0.00 0.00 90 1013.6
20260901090123 74 197 0.0 0.0 0.00 0.00 0.00 90 1013.7
20260901085618 74 197 0.0 0.0 0.00 0.00 0.00 89 1013.8
20260901085114 74 214 0.0 0.0 0.00 0.00 0.00 90 1013.8
20260901084610 74 199 0.0 0.0 0.00 0.00 0.00 90 1013.7
20260901084106 74 203 0.0 0.0 0.00 0.00 0.00 90 1013.6
20260901083606 74 220 0.0 0.0 0.00 0.00 0.00 90 1013.5
20260901083104 74 183 0.0 0.0 0.00 0.00 0.00 90 1013.7
20260901082559 74 183 0.0 0.0 0.00 0.00 0.00 90 1013.7
20260901082055 74 199 0.0 0.0 0.00 0.00 0.00 90 1013.8
20260901081550 74 175 0.0 0.0 0.00 0.00 0.00 90 1013.8
20260901081044 74 196 0.0 0.0 0.00 0.00 0.00 90 1013.7
20260901080538 74 173 0.0 0.0 0.00 0.00 0.00 89 1013.8
20260901080037 74 170 0.0 0.0 0.00 0.00 0.00 89 1013.9
20260901075533 74 164 0.0 0.0 0.00 0.00 0.00 89 1014.0
20260901075032 74 186 0.0 0.0 0.00 0.00 0.00 89 1013.9
20260901074532 74 171 0.0 0.0 0.00 0.00 0.00 89 1013.8
20260901074027 74 175 0.0 0.0 0.00 0.00 0.00 89 1014.0
20260901073524 74 173 0.0 0.0 0.00 0.00 0.00 89 1013.8
20260901073019 74 190 0.0 0.0 0.00 0.00 0.00 89 1013.9
20260901072514 74 169 0.0 0.0 0.00 0.00 0.00 89 1013.7
20260901072009 74 160 1.0 1.0 0.00 0.00 0.00 89 1013.9
20260901071509 74 180 0.0 0.0 0.00 0.00 0.00 89 1013.8
20260901071007 74 218 0.0 0.0 0.00 0.00 0.00 89 1013.9
20260901070503 74 205 0.0 0.0 0.00 0.00 0.00 88 1014.0
20260901070002 75 183 0.0 0.0 0.00 0.00 0.00 88 1014.0
20260901065457 75 156 1.0 1.0 0.00 0.00 0.00 88 1013.9
20260901064952 75 173 0.0 1.0 0.00 0.00 0.00 88 1014.0
20260901064448 75 197 0.0 0.0 0.00 0.00 0.00 88 1014.0
20260901063945 75 185 0.0 0.0 0.00 0.00 0.00 88 1013.8
20260901063442 74 187 1.0 1.0 0.00 0.00 0.00 88 1013.9
20260901062937 74 204 0.0 0.0 0.00 0.00 0.00 89 1013.8
20260901062433 74 183 0.0 0.0 0.00 0.00 0.00 89 1013.9
20260901061929 74 202 1.0 1.0 0.00 0.00 0.00 88 1013.9
20260901061425 75 208 1.0 1.0 0.00 0.00 0.00 88 1013.9
20260901060919 75 172 0.0 0.0 0.00 0.00 0.00 88 1014.0
20260901060415 75 182 0.0 0.0 0.00 0.00 0.00 88 1014.0
20260901055914 75 224 0.0 1.0 0.00 0.00 0.00 88 1014.1
20260901055411 75 172 1.0 1.0 0.00 0.00 0.00 88 1014.1
20260901054907 75 186 1.0 2.0 0.00 0.00 0.00 87 1014.2
20260901054404 75 174 1.0 1.0 0.00 0.00 0.00 87 1014.3
20260901053859 75 206 0.0 0.0 0.00 0.00 0.00 88 1014.2
20260901053355 75 204 0.0 0.0 0.00 0.00 0.00 88 1014.2
20260901052851 75 148 0.0 0.0 0.00 0.00 0.00 87 1014.6
20260901052346 75 236 2.0 2.0 0.00 0.00 0.00 88 1014.2
20260901051844 75 163 0.0 0.0 0.00 0.00 0.00 88 1014.3
20260901051340 75 201 0.0 1.0 0.00 0.00 0.00 88 1014.4
20260901050835 74 173 1.0 1.0 0.00 0.00 0.00 89 1014.2
20260901050330 74 175 0.0 0.0 0.00 0.00 0.00 90 1014.4
20260901045825 74 189 0.0 0.0 0.00 0.00 0.00 91 1014.3
20260901045324 73 177 0.0 0.0 0.00 0.00 0.00 92 1014.4
20260901044820 73 164 0.0 0.0 0.00 0.00 0.00 93 1014.3
20260901044316 73 158 0.0 0.0 0.00 0.00 0.00 94 1014.4
20260901043812 73 151 0.0 0.0 0.00 0.00 0.00 94 1014.3
20260901043308 73 150 0.0 0.0 0.00 0.00 0.00 94 1014.4
20260901042806 73 158 0.0 0.0 0.00 0.00 0.00 94 1014.3
20260901042305 73 158 0.0 0.0 0.00 0.00 0.00 94 1014.4
20260901041757 73 142 0.0 0.0 0.00 0.00 0.00 94 1014.3
20260901041252 73 128 0.0 0.0 0.00 0.00 0.00 94 1014.7
20260901040747 73 114 1.0 1.0 0.00 0.00 0.00 94 1014.3
20260901040246 73 142 0.0 0.0 0.00 0.00 0.00 94 1014.8
20260901035745 73 154 0.0 0.0 0.00 0.01 0.01 94 1014.6
20260901035244 73 155 1.0 2.0 0.00 0.01 0.01 94 1014.6
20260901034743 73 148 0.0 0.0 0.00 0.01 0.01 93 1014.7
20260901034238 73 173 0.0 0.0 0.00 0.01 0.01 93 1014.6
20260901033737 73 155 0.0 1.0 0.00 0.01 0.01 93 1014.7
20260901033237 73 167 0.0 0.0 0.00 0.01 0.01 93 1014.8
20260901032735 73 130 0.0 0.0 0.00 0.01 0.01 93 1014.7
20260901032230 73 127 0.0 0.0 0.00 0.01 0.01 93 1014.3
20260901031726 73 111 0.0 0.0 0.00 0.01 0.01 93 1014.6
20260901031222 73 111 0.0 0.0 0.00 0.01 0.01 94 1014.2
20260901030721 73 140 0.0 0.0 0.00 0.01 0.01 94 1014.1
20260901030217 73 142 0.0 0.0 0.00 0.01 0.01 94 1014.4
20260901025711 73 143 0.0 0.0 0.00 0.01 0.01 94 1014.2
20260901025211 73 144 0.0 0.0 0.00 0.01 0.01 93 1014.1
20260901024706 73 144 0.0 0.0 0.00 0.01 0.01 93 1014.2
20260901024205 73 145 0.0 0.0 0.00 0.01 0.01 93 1014.0
20260901023703 73 142 0.0 0.0 0.00 0.01 0.01 94 1014.1
20260901023158 73 147 0.0 0.0 0.00 0.01 0.01 94 1014.1
20260901022653 73 155 0.0 0.0 0.00 0.01 0.01 94 1014.2
20260901022148 73 187 0.0 0.0 0.00 0.01 0.01 94 1014.1
20260901021644 73 187 0.0 0.0 0.00 0.01 0.01 93 1014.4
20260901021139 73 187 0.0 0.0 0.00 0.01 0.01 94 1014.7
20260901020635 73 187 0.0 0.0 0.00 0.01 0.01 93 1014.9
20260901020130 74 187 0.0 0.0 0.00 0.01 0.01 92 1014.9
20260901015626 74 187 0.0 0.0 0.00 0.01 0.01 91 1015.0
20260901015125 75 187 0.0 0.0 0.00 0.01 0.01 90 1014.8
20260901014620 75 187 0.0 0.0 0.00 0.01 0.01 89 1014.9
20260901014116 75 187 0.0 0.0 0.00 0.01 0.01 88 1014.9
20260901013612 76 187 0.0 0.0 0.00 0.01 0.01 88 1014.6
20260901013107 76 187 0.0 0.0 0.00 0.01 0.01 87 1014.4
20260901012602 77 188 0.0 0.0 0.00 0.01 0.01 86 1014.3
20260901012057 77 168 0.0 0.0 0.00 0.01 0.01 85 1014.0
20260901011553 77 184 0.0 0.0 0.00 0.01 0.01 85 1014.0
20260901011050 77 180 0.0 0.0 0.00 0.01 0.01 85 1014.0
20260901010546 77 180 0.0 0.0 0.00 0.01 0.01 84 1014.0
20260901010045 77 188 0.0 0.0 0.00 0.01 0.01 84 1013.9
20260901005540 77 191 0.0 0.0 0.00 0.01 0.01 83 1013.9
20260901005036 78 213 0.0 0.0 0.00 0.01 0.01 83 1013.9
20260901004535 78 202 0.0 0.0 0.00 0.01 0.01 82 1013.8
20260901004030 78 182 0.0 0.0 0.00 0.01 0.01 81 1014.1
20260901003525 78 223 0.0 0.0 0.00 0.01 0.01 81 1014.3
20260901003023 78 203 0.0 0.0 0.00 0.01 0.01 80 1014.7
20260901002523 78 218 0.0 0.0 0.00 0.01 0.01 80 1014.3
20260901002018 79 224 0.0 0.0 0.00 0.01 0.01 80 1014.7
20260901001513 79 236 0.0 0.0 0.00 0.01 0.01 81 1014.8
20260901001009 79 204 0.0 0.0 0.00 0.01 0.01 81 1014.8
20260901000508 79 228 2.0 2.0 0.00 0.01 0.01 80 1014.9
20260901000003 79 281 4.0 5.0 0.00 0.01 0.01 80 1015.1
20260831235457 79 256 0.0 0.0 0.00 0.01 0.01 81 1015.0
20260831234953 79 223 0.0 0.0 0.00 0.01 0.01 81 1015.0
20260831234447 79 215 0.0 0.0 0.00 0.01 0.01 81 1015.0
20260831233942 79 227 0.0 0.0 0.00 0.01 0.01 81 1015.0
20260831233437 79 228 0.0 1.0 0.00 0.01 0.01 82 1015.0
20260831232933 79 224 0.0 0.0 0.00 0.01 0.01 83 1015.3
20260831232429 80 223 0.0 0.0 0.00 0.01 0.01 82 1015.1
20260831231924 80 76 1.0 1.0 0.00 0.01 0.01 82 1015.3
20260831231421 80 76 0.0 1.0 0.00 0.01 0.01 82 1015.2
20260831230916 80 61 0.0 0.0 0.00 0.01 0.01 82 1015.2
20260831230411 80 61 0.0 0.0 0.00 0.01 0.01 80 1015.1
20260831225905 81 61 0.0 0.0 0.00 0.01 0.01 83 1015.4
20260831225401 81 61 0.0 0.0 0.00 0.01 0.01 84 1015.3
20260831224855 82 61 0.0 0.0 0.00 0.01 0.01 81 1015.1
20260831224350 83 61 0.0 0.0 0.00 0.01 0.01 82 1015.1
20260831223850 83 60 0.0 0.0 0.00 0.01 0.01 79 1015.1
20260831223346 84 60 0.0 0.0 0.00 0.01 0.01 75 1015.2
20260831222843 84 60 0.0 0.0 0.00 0.01 0.01 75 1015.0
20260831222338 83 49 0.0 0.0 0.00 0.01 0.01 75 1014.9
20260831221833 83 49 0.0 0.0 0.00 0.01 0.01 75 1015.1
20260831221329 84 49 0.0 0.0 0.00 0.01 0.01 72 1014.9
20260831220824 84 49 0.0 0.0 0.00 0.01 0.01 71 1014.9
20260831220319 84 49 0.0 0.0 0.00 0.01 0.01 71 1015.0
20260831215814 84 49 0.0 0.0 0.00 0.01 0.01 71 1015.1
20260831215310 84 50 0.0 0.0 0.00 0.01 0.01 73 1014.9
20260831214807 84 49 0.0 0.0 0.00 0.01 0.01 74 1015.0
20260831214304 84 72 0.0 0.0 0.00 0.01 0.01 74 1014.8
20260831213759 84 59 0.0 0.0 0.00 0.01 0.01 69 1015.0
20260831213255 84 59 0.0 0.0 0.00 0.01 0.01 70 1015.1
20260831212750 85 64 0.0 0.0 0.00 0.01 0.01 67 1015.2
20260831212247 85 55 0.0 0.0 0.00 0.01 0.01 70 1015.1
20260831211745 84 37 0.0 0.0 0.00 0.01 0.01 70 1015.1
20260831211241 85 35 0.0 1.0 0.00 0.01 0.01 68 1015.2
20260831210740 85 202 0.0 0.0 0.00 0.01 0.01 66 1015.4
20260831210237 85 202 0.0 0.0 0.00 0.01 0.01 64 1015.3
20260831205736 86 202 1.0 1.0 0.00 0.01 0.01 67 1015.3
20260831205232 86 193 1.0 1.0 0.00 0.01 0.01 66 1015.4
20260831204726 87 287 0.0 1.0 0.00 0.01 0.01 64 1015.5
20260831204226 87 219 1.0 2.0 0.00 0.01 0.01 63 1015.4
20260831203719 88 222 0.0 0.0 0.00 0.01 0.01 63 1015.3
20260831203219 87 245 0.0 0.0 0.00 0.01 0.01 66 1015.5
20260831202717 86 219 0.0 0.0 0.00 0.01 0.01 68 1015.3
20260831202212 85 314 0.0 0.0 0.00 0.01 0.01 70 1015.0
20260831201707 85 70 0.0 0.0 0.00 0.01 0.01 72 1015.3
20260831201206 84 64 0.0 0.0 0.00 0.01 0.01 73 1015.4
20260831200703 83 46 0.0 0.0 0.00 0.01 0.01 72 1015.2
20260831200202 83 42 0.0 0.0 0.00 0.01 0.01 71 1014.8
20260831195658 82 42 0.0 0.0 0.00 0.01 0.01 72 1014.9
20260831195153 82 231 0.0 0.0 0.00 0.01 0.01 71 1015.0
20260831194648 82 232 0.0 0.0 0.00 0.01 0.01 71 1014.9
20260831194143 82 220 0.0 0.0 0.00 0.01 0.01 71 1014.9
20260831193637 82 220 0.0 0.0 0.00 0.01 0.01 70 1014.9
20260831193133 83 213 0.0 0.0 0.00 0.01 0.01 71 1015.2
20260831192628 83 213 0.0 0.0 0.00 0.01 0.01 70 1015.4
20260831192123 83 213 0.0 0.0 0.00 0.01 0.01 70 1015.6
20260831191619 83 213 0.0 0.0 0.00 0.01 0.01 69 1015.4
20260831191115 84 209 0.0 0.0 0.00 0.01 0.01 69 1015.6
20260831190610 84 204 0.0 0.0 0.00 0.01 0.01 68 1015.8
20260831190109 84 204 0.0 0.0 0.00 0.01 0.01 68 1015.8
20260831185605 84 221 0.0 0.0 0.00 0.01 0.01 68 1015.8
20260831185101 84 216 1.0 1.0 0.00 0.01 0.01 68 1015.8
20260831184600 84 268 0.0 1.0 0.00 0.01 0.01 67 1016.0
20260831184055 84 233 2.0 3.0 0.00 0.01 0.01 67 1016.0
20260831183554 85 177 1.0 1.0 0.00 0.01 0.01 67 1016.0
20260831183048 86 196 5.0 6.0 0.00 0.01 0.01 66 1016.0
20260831182543 86 31 2.0 2.0 0.00 0.01 0.01 66 1016.0
20260831182039 85 140 1.0 1.0 0.00 0.01 0.01 70 1016.2
20260831181538 86 227 2.0 2.0 0.00 0.01 0.01 69 1016.1
20260831181038 85 238 0.0 0.0 0.00 0.01 0.01 68 1016.1
20260831180534 85 253 1.0 1.0 0.00 0.01 0.01 70 1016.3
20260831180028 84 221 1.0 1.0 0.00 0.01 0.01 70 1016.3
20260831175524 84 234 0.0 0.0 0.00 0.01 0.01 72 1016.3
20260831175020 84 225 0.0 0.0 0.00 0.01 0.01 70 1016.5
20260831174515 84 240 1.0 2.0 0.00 0.01 0.01 72 1016.4
20260831174014 84 226 0.0 0.0 0.00 0.01 0.01 71 1016.3
20260831173513 84 207 0.0 0.0 0.00 0.01 0.01 73 1016.3
20260831173010 83 213 4.0 5.0 0.00 0.01 0.01 70 1016.3
20260831172504 83 210 2.0 2.0 0.00 0.01 0.01 72 1016.6
20260831171959 83 240 1.0 1.0 0.00 0.01 0.01 71 1016.4
20260831171455 83 226 1.0 1.0 0.00 0.01 0.01 71 1016.5
20260831170952 83 257 3.0 6.0 0.00 0.01 0.01 70 1016.5
20260831170448 84 254 1.0 1.0 0.00 0.01 0.01 72 1016.4
20260831165944 83 233 1.0 1.0 0.00 0.01 0.01 71 1016.6
20260831165440 83 238 3.0 5.0 0.00 0.01 0.01 73 1016.7
20260831164937 82 205 1.0 1.0 0.00 0.01 0.01 73 1016.6
20260831164432 82 223 1.0 1.0 0.00 0.01 0.01 73 1016.6
20260831163927 82 232 1.0 1.0 0.00 0.01 0.01 74 1016.7
20260831163423 82 243 2.0 2.0 0.00 0.01 0.01 73 1016.6
20260831162921 82 190 0.0 1.0 0.00 0.01 0.01 72 1016.5
20260831162417 83 249 1.0 2.0 0.00 0.01 0.01 73 1016.6
20260831161915 83 248 2.0 2.0 0.00 0.01 0.01 72 1016.4
20260831161412 83 276 3.0 5.0 0.00 0.01 0.01 70 1016.3
20260831160907 84 239 3.0 3.0 0.00 0.01 0.01 70 1016.5
20260831160402 83 272 1.0 2.0 0.00 0.01 0.01 69 1016.8
20260831155857 83 226 4.0 5.0 0.00 0.01 0.01 68 1016.5
20260831155356 82 236 3.0 3.0 0.00 0.01 0.01 72 1016.5
20260831154852 81 226 0.0 1.0 0.00 0.01 0.01 74 1016.6
20260831154349 81 223 1.0 1.0 0.00 0.01 0.01 73 1016.6
20260831153846 82 218 2.0 2.0 0.00 0.01 0.01 73 1016.6
20260831153343 82 238 3.0 3.0 0.00 0.01 0.01 71 1016.4
20260831152839 82 292 1.0 2.0 0.00 0.01 0.01 74 1016.4
20260831152334 82 240 3.0 3.0 0.00 0.01 0.01 74 1016.7
20260831151829 82 174 2.0 3.0 0.00 0.01 0.01 73 1016.5
20260831151328 82 257 4.0 5.0 0.00 0.01 0.01 73 1016.4
20260831150824 80 210 1.0 2.0 0.00 0.01 0.01 76 1016.6
20260831150319 79 224 0.0 0.0 0.00 0.01 0.01 80 1016.6
20260831145818 79 213 0.0 0.0 0.00 0.01 0.01 80 1016.7
20260831145315 80 211 1.0 1.0 0.00 0.01 0.01 80 1016.6
20260831144810 78 202 1.0 1.0 0.00 0.01 0.01 82 1016.7
20260831144306 77 197 2.0 2.0 0.00 0.01 0.01 84 1016.6
20260831143806 76 197 1.0 1.0 0.00 0.01 0.01 85 1016.9
20260831143301 76 181 0.0 1.0 0.00 0.01 0.01 87 1016.6
20260831142756 76 171 1.0 1.0 0.00 0.01 0.01 87 1016.6
20260831142252 75 180 1.0 2.0 0.00 0.01 0.01 87 1016.8
20260831141751 75 192 1.0 1.0 0.00 0.01 0.01 88 1016.6
20260831141251 75 182 1.0 2.0 0.00 0.01 0.01 88 1016.7
20260831140746 74 175 0.0 0.0 0.00 0.01 0.01 89 1016.7
20260831140241 74 186 1.0 1.0 0.00 0.01 0.01 90 1016.5
20260831135738 73 194 2.0 2.0 0.00 0.01 0.01 90 1016.5
20260831135234 73 182 2.0 3.0 0.00 0.01 0.01 91 1016.4
20260831134729 73 201 1.0 1.0 0.00 0.01 0.01 91 1016.7
20260831134226 73 182 1.0 1.0 0.00 0.01 0.01 92 1016.5
20260831133725 73 175 0.0 0.0 0.00 0.01 0.01 92 1016.7
20260831133219 73 175 0.0 0.0 0.00 0.01 0.01 92 1016.8
20260831132715 73 175 0.0 0.0 0.00 0.01 0.01 93 1016.8
20260831132214 73 167 3.0 3.0 0.00 0.01 0.01 92 1016.7
20260831131709 73 189 2.0 2.0 0.00 0.01 0.01 92 1016.6
20260831131206 73 177 0.0 0.0 0.00 0.01 0.01 91 1016.6
20260831130700 74 188 1.0 1.0 0.00 0.01 0.01 91 1016.5
20260831130156 74 188 0.0 0.0 0.00 0.01 0.01 91 1016.5
20260831125654 74 188 0.0 0.0 0.00 0.01 0.01 91 1016.6
20260831125150 73 188 0.0 0.0 0.00 0.01 0.01 91 1016.6
20260831124645 73 181 1.0 1.0 0.00 0.01 0.01 91 1016.5
20260831124141 72 178 1.0 1.0 0.00 0.01 0.01 93 1016.5
20260831123636 71 179 0.0 0.0 0.00 0.01 0.01 95 1016.5
20260831123134 70 178 0.0 0.0 0.00 0.01 0.01 96 1016.7
20260831122634 70 178 0.0 0.0 0.00 0.01 0.01 96 1016.5
20260831122131 69 146 0.0 0.0 0.00 0.01 0.01 97 1016.6
20260831121630 69 143 0.0 0.0 0.00 0.01 0.01 98 1016.4
20260831121126 69 140 0.0 0.0 0.00 0.01 0.01 98 1016.7
20260831120621 69 140 0.0 0.0 0.00 0.01 0.01 97 1016.6
20260831120116 69 114 0.0 0.0 0.00 0.01 0.01 97 1016.3
20260831115612 69 113 0.0 0.0 0.00 0.01 0.01 96 1016.7
20260831115107 69 114 0.0 0.0 0.00 0.01 0.01 96 1016.6
20260831114606 69 113 0.0 0.0 0.00 0.01 0.01 97 1016.6
20260831114101 69 113 0.0 0.0 0.00 0.01 0.01 96 1016.6
20260831113600 69 153 0.0 0.0 0.00 0.01 0.01 96 1016.5
20260831113056 69 158 1.0 1.0 0.00 0.01 0.01 96 1016.4
20260831112555 69 159 1.0 1.0 0.07 0.01 0.01 95 1016.5
20260831112050 69 152 0.0 0.0 0.07 0.01 0.01 95 1016.5
20260831111546 69 175 3.0 3.0 0.00 0.00 0.00 96 1016.5
20260831111042 69 150 0.0 0.0 0.00 0.00 0.00 96 1016.5
20260831110537 69 150 0.0 0.0 0.00 0.00 0.00 94 1016.3
20260831110032 70 150 0.0 0.0 0.00 0.00 0.00 94 1016.4
20260831105531 70 150 0.0 0.0 0.00 0.00 0.00 94 1016.4
20260831105026 70 150 1.0 1.0 0.00 0.00 0.00 94 1016.0
20260831104523 70 151 1.0 2.0 0.00 0.00 0.00 94 1015.9
20260831104018 69 151 0.0 1.0 0.00 0.00 0.00 94 1016.0
20260831103513 69 163 2.0 2.0 0.00 0.00 0.00 94 1016.0
20260831103009 69 164 0.0 0.0 0.00 0.00 0.00 94 1015.9
20260831102503 69 177 0.0 1.0 0.00 0.00 0.00 94 1015.8
20260831101958 69 174 1.0 1.0 0.00 0.00 0.00 94 1015.8
20260831101453 69 164 1.0 2.0 0.00 0.00 0.00 94 1016.0